Hourly Data Report for January 21, 2022

TERRACE A
BRITISH COLUMBIA
Current Station Operator: NAVCAN

54°28'07.000" N
128°34'42.000" W
217.30 m
1068134
71951
YXT

Download Data

Hourly Data (January 2022)
Hourly Data Report for January 21, 2022
TIME
LST
Temp Definition
°C
Dew Point Definition
°C
Rel Hum Definition
%
Precip. Amount Definition
mm

Wind Dir Definition
10's deg

Wind Spd Definition
km/h
Visibility Definition
km
Stn Press Definition
kPa
Hmdx Definition


Wind Chill Definition


Weather Definition


00:00 3.6 3.1 97 LegendMM 17 24 16.1 100.11     LegendNANA
01:00 3.7 3.1 96 LegendMM 20 17 16.1 100.20     Cloudy
02:00 3.4 2.8 96 LegendMM 19 26 16.1 100.23     LegendNANA
03:00 3.2 2.6 96 LegendMM 17 32 24.1 100.23     Snow
04:00 3.6 2.5 92 LegendMM 17 41 24.1 100.27     Rain
05:00 3.5 2.6 94 LegendMM 17 46 24.1 100.30     Rain
06:00 3.6 2.9 96 LegendMM 16 44 24.1 100.33     LegendNANA
07:00 3.2 2.7 96 LegendMM 15 35 24.1 100.35     Mostly Cloudy
08:00 3.2 2.8 97 LegendMM 15 36 24.1 100.31     LegendNANA
09:00 3.6 2.7 93 LegendMM 15 39 24.1 100.36     LegendNANA
10:00 4.0 2.2 88 LegendMM 16 38 32.2 100.41     Mostly Cloudy
11:00 4.3 2.3 87 LegendMM 16 35 32.2 100.44     LegendNANA
12:00 4.0 2.1 87 LegendMM 18 22 32.2 100.42     LegendNANA
13:00 4.7 2.3 84 LegendMM 18 31 32.2 100.46     Rain Showers
14:00 4.2 2.3 88 LegendMM 17 31 32.2 100.44     Rain Showers
15:00 4.2 2.2 87 LegendMM 17 33 32.2 100.46     Rain Showers
16:00 4.1 2.0 86 LegendMM 18 32 32.2 100.47     Rain Showers
17:00 3.9 2.3 89 LegendMM 17 36 32.2 100.49     Rain Showers
18:00 3.8 2.3 90 LegendMM 17 36 24.1 100.50     Rain Showers
19:00 4.0 2.2 88 LegendMM 17 31 24.1 100.49     Rain Showers
20:00 4.0 2.2 88 LegendMM 18 41 24.1 100.49     Rain Showers
21:00 4.2 1.8 84 LegendMM 17 35 16.1 100.51     LegendNANA
22:00 4.4 1.8 83 LegendMM 18 30 16.1 100.54     Cloudy
23:00 4.2 1.4 82 LegendMM 18 29 16.1 100.55     LegendNANA

Notes on Data Quality.

Legend

  • E = Estimated
  • M = Missing
  • NA = Not Available*
  • [empty] = Indicates an unobserved value
Date modified: